• In Hungary
  • List of Countries
  • For 7 days
  • Water Temperature
  • Satellite Maps
  • Weather Map
  • News
  • Weather Widgets
  • user-avatar
    Login

    Hourly Weather Sevan

    Today, 20 August, Sunday

    Time Temperature Precipitation Wind Pressure Humidity
    00:00 +19°C° 0 mm 3 mps 644 mmHg 61%
    01:00 +18°C° 0 mm 3 mps 644 mmHg 62%
    02:00 +18°C° 0 mm 3 mps 644 mmHg 64%
    03:00 +17°C° 0 mm 3 mps 643 mmHg 65%
    04:00 +17°C° 0 mm 3 mps 644 mmHg 65%
    05:00 +17°C° 0 mm 2 mps 644 mmHg 65%
    06:00 +17°C° 0 mm 2 mps 644 mmHg 64%
    07:00 +20°C° 0 mm 2 mps 644 mmHg 57%
    08:00 +23°C° 0 mm 2 mps 645 mmHg 49%
    09:00 +25°C° 0 mm 2 mps 646 mmHg 41%
    10:00 +27°C° 0 mm 2 mps 646 mmHg 38%
    11:00 +28°C° 0 mm 2 mps 646 mmHg 35%
    12:00 +29°C° 0 mm 3 mps 646 mmHg 32%
    13:00 +30°C° 0 mm 3 mps 645 mmHg 31%
    14:00 +30°C° 0 mm 3 mps 645 mmHg 30%
    15:00 +30°C° 0 mm 3 mps 645 mmHg 31%
    16:00 +29°C° 0 mm 3 mps 645 mmHg 34%
    17:00 +28°C° 0 mm 3 mps 644 mmHg 38%
    18:00 +27°C° 0 mm 3 mps 644 mmHg 41%
    19:00 +25°C° 0 mm 3 mps 644 mmHg 45%
    20:00 +22°C° 0 mm 3 mps 643 mmHg 49%
    21:00 +20°C° 0 mm 3 mps 643 mmHg 53%
    22:00 +20°C° 0 mm 3 mps 643 mmHg 54%
    23:00 +19°C° 0 mm 3 mps 643 mmHg 55%

    Tomorrow, 21 August, Monday

    Time Temperature Precipitation Wind Pressure Humidity
    00:00 +19°C° 0 mm 2 mps 643 mmHg 55%
    01:00 +18°C° 0 mm 2 mps 643 mmHg 56%
    02:00 +18°C° 0 mm 2 mps 643 mmHg 58%
    03:00 +17°C° 0 mm 2 mps 643 mmHg 59%
    04:00 +17°C° 0 mm 2 mps 643 mmHg 59%
    05:00 +17°C° 0 mm 2 mps 643 mmHg 60%
    06:00 +17°C° 0 mm 2 mps 643 mmHg 61%
    07:00 +20°C° 0 mm 2 mps 643 mmHg 53%
    08:00 +23°C° 0 mm 2 mps 644 mmHg 46%
    09:00 +26°C° 0 mm 2 mps 644 mmHg 38%
    10:00 +27°C° 0 mm 2 mps 644 mmHg 35%
    11:00 +29°C° 0 mm 2 mps 644 mmHg 31%
    12:00 +30°C° 0 mm 2 mps 644 mmHg 27%
    13:00 +31°C° 0 mm 2 mps 644 mmHg 26%
    14:00 +31°C° 0 mm 2 mps 644 mmHg 25%
    15:00 +31°C° 0 mm 2 mps 643 mmHg 23%
    16:00 +30°C° 0 mm 2 mps 643 mmHg 28%
    17:00 +29°C° 0 mm 2 mps 642 mmHg 32%
    18:00 +28°C° 0 mm 1 mps 642 mmHg 36%
    19:00 +26°C° 0 mm 2 mps 642 mmHg 42%
    20:00 +24°C° 0 mm 2 mps 642 mmHg 47%
    21:00 +21°C° 0 mm 3 mps 641 mmHg 53%
    22:00 +20°C° 0 mm 2 mps 641 mmHg 55%
    23:00 +20°C° 0 mm 2 mps 641 mmHg 57%

    Day after tomorrow, 22 August, Tuesday

    Time Temperature Precipitation Wind Pressure Humidity
    00:00 +19°C° 0 mm 2 mps 641 mmHg 60%
    01:00 +19°C° 0 mm 2 mps 641 mmHg 59%
    02:00 +19°C° 0 mm 2 mps 641 mmHg 59%
    03:00 +18°C° 0 mm 2 mps 641 mmHg 58%
    04:00 +19°C° 0 mm 1 mps 641 mmHg 57%
    05:00 +19°C° 0 mm 1 mps 641 mmHg 56%
    06:00 +19°C° 0 mm 1 mps 641 mmHg 55%
    07:00 +22°C° 0 mm 1 mps 642 mmHg 47%
    08:00 +25°C° 0 mm 2 mps 642 mmHg 40%
    09:00 +28°C° 0 mm 2 mps 643 mmHg 32%
    10:00 +29°C° 0 mm 2 mps 643 mmHg 29%
    11:00 +30°C° 0 mm 2 mps 643 mmHg 26%
    12:00 +32°C° 0 mm 2 mps 643 mmHg 24%
    13:00 +32°C° 0 mm 2 mps 643 mmHg 23%
    14:00 +33°C° 0 mm 3 mps 642 mmHg 22%
    15:00 +34°C° 0 mm 3 mps 642 mmHg 22%
    16:00 +31°C° 0 mm 2 mps 641 mmHg 26%
    17:00 +30°C° 0 mm 2 mps 641 mmHg 31%
    18:00 +29°C° 0 mm 2 mps 640 mmHg 36%
    19:00 +27°C° 0 mm 2 mps 640 mmHg 41%
    20:00 +24°C° 0 mm 2 mps 640 mmHg 47%
    21:00 +21°C° 0 mm 3 mps 640 mmHg 52%
    22:00 +21°C° 0 mm 3 mps 640 mmHg 53%
    23:00 +20°C° 0 mm 3 mps 640 mmHg 53%

    23 August, Wednesday

    Time Temperature Precipitation Wind Pressure Humidity
    00:00 +20°C° 0 mm 3 mps 640 mmHg 53%
    01:00 +19°C° 0 mm 3 mps 640 mmHg 53%
    02:00 +19°C° 0 mm 2 mps 640 mmHg 54%
    03:00 +19°C° 0 mm 2 mps 640 mmHg 54%
    04:00 +18°C° 0 mm 2 mps 641 mmHg 54%
    05:00 +18°C° 0 mm 2 mps 641 mmHg 54%
    06:00 +18°C° 0 mm 2 mps 641 mmHg 54%
    07:00 +21°C° 0 mm 2 mps 642 mmHg 47%
    08:00 +25°C° 0 mm 2 mps 642 mmHg 41%
    09:00 +27°C° 0 mm 2 mps 643 mmHg 34%
    10:00 +29°C° 0 mm 2 mps 643 mmHg 31%
    11:00 +30°C° 0 mm 2 mps 643 mmHg 28%
    12:00 +33°C° 0 mm 3 mps 643 mmHg 25%
    13:00 +33°C° 0 mm 3 mps 643 mmHg 24%
    14:00 +33°C° 0 mm 3 mps 643 mmHg 24%
    15:00 +34°C° 0 mm 3 mps 643 mmHg 23%
    16:00 +31°C° 0 mm 3 mps 643 mmHg 27%
    17:00 +30°C° 0 mm 3 mps 643 mmHg 32%
    18:00 +28°C° 0 mm 3 mps 642 mmHg 36%
    19:00 +26°C° 0 mm 3 mps 642 mmHg 40%
    20:00 +24°C° 0 mm 3 mps 643 mmHg 44%
    21:00 +21°C° 0 mm 4 mps 643 mmHg 48%
    22:00 +20°C° 0 mm 3 mps 643 mmHg 48%
    23:00 +20°C° 0 mm 3 mps 643 mmHg 48%

    24 August, Thursday

    Time Temperature Precipitation Wind Pressure Humidity
    00:00 +19°C° 0 mm 3 mps 643 mmHg 47%
    01:00 +19°C° 0 mm 3 mps 643 mmHg 49%
    02:00 +18°C° 0 mm 3 mps 643 mmHg 50%
    03:00 +17°C° 0 mm 2 mps 643 mmHg 52%
    04:00 +17°C° 0 mm 2 mps 643 mmHg 54%
    05:00 +17°C° 0 mm 2 mps 643 mmHg 55%
    06:00 +17°C° 0 mm 2 mps 643 mmHg 57%
    07:00 +20°C° 0 mm 2 mps 644 mmHg 51%
    08:00 +23°C° 0 mm 2 mps 644 mmHg 45%
    09:00 +26°C° 0 mm 2 mps 645 mmHg 39%
    10:00 +27°C° 0 mm 2 mps 645 mmHg 35%
    11:00 +29°C° 0 mm 2 mps 645 mmHg 32%
    12:00 +30°C° 0 mm 2 mps 645 mmHg 28%
    13:00 +31°C° 0 mm 3 mps 645 mmHg 28%
    14:00 +31°C° 0 mm 3 mps 645 mmHg 27%
    15:00 +31°C° 0 mm 3 mps 645 mmHg 27%
    16:00 +30°C° 0 mm 3 mps 645 mmHg 30%
    17:00 +29°C° 0 mm 3 mps 645 mmHg 34%
    18:00 +27°C° 0 mm 4 mps 644 mmHg 38%
    19:00 +26°C° 0 mm 3 mps 644 mmHg 40%
    20:00 +24°C° 0 mm 3 mps 644 mmHg 42%
    21:00 +21°C° 0 mm 3 mps 645 mmHg 44%
    22:00 +20°C° 0 mm 3 mps 645 mmHg 44%
    23:00 +19°C° 0 mm 3 mps 645 mmHg 44%

    25 August, Friday

    Time Temperature Precipitation Wind Pressure Humidity
    00:00 +19°C° 0 mm 3 mps 645 mmHg 44%
    01:00 +18°C° 0 mm 3 mps 645 mmHg 45%
    02:00 +18°C° 0 mm 3 mps 644 mmHg 46%
    03:00 +17°C° 0 mm 3 mps 644 mmHg 47%
    04:00 +17°C° 0 mm 2 mps 644 mmHg 48%
    05:00 +17°C° 0 mm 2 mps 645 mmHg 49%
    06:00 +17°C° 0 mm 2 mps 645 mmHg 50%
    07:00 +19°C° 0 mm 2 mps 645 mmHg 44%
    08:00 +23°C° 0 mm 2 mps 646 mmHg 39%
    09:00 +26°C° 0 mm 2 mps 647 mmHg 33%
    10:00 +27°C° 0 mm 2 mps 647 mmHg 30%
    11:00 +28°C° 0 mm 2 mps 647 mmHg 28%
    12:00 +30°C° 0 mm 2 mps 647 mmHg 25%
    13:00 +30°C° 0 mm 2 mps 646 mmHg 24%
    14:00 +31°C° 0 mm 3 mps 646 mmHg 24%
    15:00 +31°C° 0 mm 3 mps 646 mmHg 23%
    16:00 +30°C° 0 mm 3 mps 645 mmHg 26%
    17:00 +28°C° 0 mm 3 mps 645 mmHg 29%
    18:00 +27°C° 0 mm 3 mps 645 mmHg 31%
    19:00 +25°C° 0 mm 3 mps 645 mmHg 32%
    20:00 +22°C° 0 mm 3 mps 645 mmHg 33%
    21:00 +20°C° 0 mm 3 mps 645 mmHg 34%
    22:00 +19°C° 0 mm 3 mps 645 mmHg 34%
    23:00 +19°C° 0 mm 3 mps 645 mmHg 33%
    Show more